Vertical_Velocity
-1 -1 0 -0 -1 -1 0 -0 -1 -0 -0 0 1 1 -0 2 2 0 -1 -3 1 1 -1 -1 -0 -2 -2 -2 -0 1 -1 -0 -0
-0 -0 -1 1 0 -1 0 1 1 -1 -1 -2 -1 0 0 -2 -2 1 -0 -1 -1 -0 1 -1 -1 -0 0 -2 -1 -1 -3 0 -2
0 1 -2 2 2 0 1 0 -1 -0 -1 0 -0 -2 -1 -0 -1 -1 -1 1 0 -0 -1 0 -1 -1 -1 -1 -0 -2 -1 -1 -1
1 0 -2 -0 2 -0 -0 -0 -1 1 0 -0 -0 -1 0 -2 -1 -1 -2 -1 -1 0 0 0 -1 -0 -1 -0 -1 -2 -2 -1 -1
2 0 -3 -4 0 0 0 -0 -0 -1 -2 -2 1 -1 -2 1 -2 -2 -2 0 -1 -1 -1 -1 -1 -0 -2 -1 0 -2 0 -1 -0
2 1 1 -2 2 3 1 -2 1 -1 -2 -0 -2 -1 -2 -2 -1 -0 -0 -1 -0 -0 -1 -2 -2 -1 -1 1 -0 -0 -1 -1 1
2 -0 1 -2 -3 1 0 1 -1 0 1 1 2 1 0 -0 -0 -1 -1 -1 0 0 -1 -1 -1 -1 -0 0 -0 -1 -1 -0 -0
5 1 2 -1 -4 -1 -0 -1 -0 -1 -2 -1 -1 -1 1 2 1 2 1 0 1 1 1 1 0 -1 -2 -2 -1 -2 -0 -2 -2
2 1 1 3 -1 0 0 -0 -0 -1 -0 1 0 1 -0 -2 -1 -1 -1 -1 -1 -0 0 1 0 1 -0 -1 -1 -2 -2 -1 -1
2 0 2 2 1 1 -0 -0 -0 1 1 0 1 0 -1 -1 -3 -2 -2 -2 -2 -2 -2 -2 -2 -1 -1 -2 -3 -2 -1 0 1
-1 -1 0 -0 -1 -1 -1 -2 0 -1 -0 -0 -1 -1 1 2 1 0 -1 -3 -1 -2 -1 -1 -1 -2 -1 1 -2 -1 -1 -0 -1
1 1 1 2 1 1 1 -0 0 1 1 0 1 1 -1 -0 1 2 2 1 -1 -0 -1 4 3 -2 -2 -3 -1 -2 -1 -2 -0
1 2 3 -0 2 3 2 1 2 1 -0 0 -1 -0 1 -0 -2 -1 1 1 2 -1 0 -1 1 2 -2 3 -0 -1 1 -3 -4
-1 -0 0 1 -1 1 2 1 -0 -0 -0 1 1 1 0 -0 -1 -1 -0 0 2 -0 -1 -2 -2 -1 2 0 -2 -1 -3 -1 0
0 2 2 3 1 -1 -0 1 1 3 2 1 -1 -1 0 0 2 -1 0 0 -3 -1 1 -5 1 2 0 2 1 1 1 -1 1
-0 1 3 3 2 5 6 4 3 3 0 -2 -1 -3 -1 0 -1 3 -0 4 4 1 0 -1 -0 0 1 2 -4 4 2 -0 -0
1 -0 2 1 1 2 2 -0 1 -1 -4 -4 -4 -4 -5 -13 1 -2 -1 -4 0 1 2 6 9 -9 1 1 1 -2 -0 1 -2
1 6 12 9 5 3 1 -1 1 -5 -7 -6 3 -0 2 3 2 1 -1 0 4 3 0 -3 -2 8 3 -0 0 0 3 6 -1
3 -1 -1 1 2 0 0 -1 -0 -6 -2 -3 5 2 3 0 -3 -1 -0 1 -4 -1 2 2 2 -3 4 1 -6 1 2 -1 -1
8 2 -3 1 -9 -3 -22 13 -1 -4 1 1 -2 -2 -3 1 6 -1 7 -0 -1 -1 -4 -9 -2 -2 -7 0 -2 1 -0 -3 5
Height
1563 1565 1567 1570 1572 1574 1577 1578 1580 1582 1583 1584 1584 1585 1586 1586 1586 1586 1586 1586 1585 1585 1584 1583 1582 1582 1581 1580 1579 1578 1578 1577 1575
1563 1566 1569 1571 1574 1576 1578 1580 1581 1583 1584 1585 1586 1587 1588 1588 1588 1588 1588 1588 1587 1587 1586 1585 1584 1584 1583 1582 1581 1581 1580 1579 1578
1564 1567 1571 1574 1576 1578 1580 1581 1583 1585 1586 1587 1588 1589 1590 1590 1590 1590 1590 1590 1589 1588 1588 1587 1586 1586 1585 1584 1583 1582 1581 1581 1580
1565 1569 1572 1576 1578 1579 1581 1583 1585 1587 1588 1589 1590 1590 1591 1591 1591 1592 1592 1592 1592 1591 1590 1589 1588 1587 1586 1586 1585 1584 1583 1582 1582
1567 1570 1573 1577 1579 1581 1582 1584 1586 1588 1589 1590 1591 1591 1592 1592 1592 1593 1593 1593 1593 1592 1592 1591 1590 1589 1588 1587 1586 1586 1585 1584 1583
1567 1571 1573 1576 1580 1582 1584 1585 1587 1589 1590 1591 1592 1592 1593 1593 1593 1594 1594 1594 1594 1594 1593 1592 1592 1591 1590 1589 1588 1587 1587 1586 1585
1567 1570 1573 1576 1580 1583 1585 1586 1588 1590 1591 1592 1592 1593 1593 1594 1594 1594 1594 1594 1595 1595 1594 1594 1593 1593 1592 1591 1590 1589 1588 1587 1587
1567 1570 1573 1575 1579 1582 1585 1587 1588 1590 1591 1592 1593 1593 1594 1594 1595 1595 1595 1595 1595 1595 1595 1594 1594 1593 1593 1592 1591 1591 1590 1589 1588
1567 1570 1573 1576 1579 1582 1584 1586 1588 1590 1591 1592 1593 1594 1594 1595 1595 1595 1596 1596 1596 1596 1596 1596 1595 1594 1593 1593 1592 1592 1591 1590 1589
1568 1571 1574 1576 1579 1582 1584 1586 1587 1589 1590 1591 1592 1593 1594 1594 1595 1595 1596 1596 1596 1596 1596 1595 1595 1595 1594 1593 1592 1592 1592 1591 1590
1568 1571 1575 1577 1579 1581 1583 1585 1587 1588 1589 1591 1592 1593 1594 1594 1594 1594 1594 1595 1595 1595 1595 1595 1595 1595 1594 1593 1592 1592 1591 1591 1591
1567 1571 1574 1576 1578 1580 1582 1584 1586 1588 1589 1590 1591 1592 1592 1593 1593 1593 1593 1593 1594 1594 1594 1594 1594 1593 1593 1592 1591 1591 1590 1590 1591
1566 1570 1573 1575 1578 1580 1581 1583 1585 1587 1589 1590 1590 1591 1591 1591 1592 1593 1592 1592 1592 1593 1593 1593 1594 1593 1592 1592 1591 1590 1589 1589 1589
1564 1569 1571 1573 1575 1579 1580 1582 1584 1586 1588 1589 1590 1589 1590 1590 1590 1590 1590 1590 1590 1590 1591 1592 1592 1591 1591 1590 1590 1589 1587 1587 1587
1562 1566 1569 1571 1574 1576 1579 1581 1583 1585 1586 1586 1587 1588 1587 1587 1588 1588 1587 1588 1588 1589 1589 1589 1589 1589 1590 1590 1589 1588 1586 1585 1585
1560 1563 1567 1570 1573 1576 1578 1580 1582 1583 1584 1585 1585 1585 1585 1585 1585 1585 1585 1585 1585 1585 1586 1585 1586 1586 1587 1587 1588 1587 1584 1583 1582
1557 1562 1566 1569 1572 1574 1577 1578 1581 1582 1583 1582 1582 1581 1581 1582 1581 1581 1581 1582 1582 1582 1582 1582 1582 1582 1583 1583 1584 1584 1582 1580 1580
1555 1560 1564 1567 1569 1572 1574 1576 1578 1579 1580 1580 1581 1579 1577 1576 1576 1578 1578 1578 1578 1578 1578 1578 1579 1578 1577 1578 1580 1580 1578 1578 1577
1552 1556 1560 1563 1565 1568 1572 1574 1575 1575 1573 1575 1575 1576 1576 1574 1574 1573 1573 1573 1573 1574 1574 1575 1574 1574 1575 1574 1576 1576 1574 1574 1573
1548 1552 1555 1558 1562 1566 1568 1569 1566 1572 1572 1572 1572 1573 1573 1571 1570 1569 1568 1570 1570 1570 1571 1570 1571 1571 1570 1570 1570 1571 1571 1570 1570